Temperature
8 8 8 8 9 9 9 9 9 9 9 9 9 9 9 9 9 9 10 10 10 10 10 10 10 10 10 10 11 11 11 11 11 11 11 11 11 11 11 12 12 12 12
8 8 8 8 8 8 8 8 8 8 9 9 9 9 9 9 9 9 9 9 9 10 10 10 10 10 10 10 10 10 10 10 10 11 11 11 11 11 11 11 11 11 11
7 7 7 7 7 8 8 8 8 8 8 8 8 8 8 8 8 8 8 9 9 9 9 9 9 9 9 10 10 10 10 10 10 10 10 10 10 10 11 11 11 11 11
6 6 6 7 7 7 7 7 7 7 7 7 7 7 7 7 7 8 8 8 8 8 8 9 9 9 9 9 9 9 9 9 9 10 10 10 10 10 10 10 10 10 11
5 5 6 6 6 6 6 6 7 7 7 7 7 7 7 7 7 7 7 7 7 8 8 8 8 8 9 9 9 9 9 9 9 9 9 9 10 10 10 10 10 10 10
5 5 5 5 5 6 6 6 6 6 6 6 6 6 6 6 6 6 7 7 7 7 7 7 7 8 8 8 8 8 8 8 8 9 9 9 9 9 9 9 9 9 10
4 4 4 4 5 5 5 5 5 5 5 5 5 5 5 6 6 6 6 6 6 6 7 7 7 7 7 8 8 8 8 8 8 8 8 8 8 8 9 9 9 9 9
3 3 3 4 4 4 4 4 4 5 5 5 4 4 4 5 5 5 5 6 6 6 6 6 6 6 7 7 7 7 7 7 7 7 7 8 8 8 8 8 8 8 8
2 3 3 3 3 3 3 4 4 4 4 4 4 4 4 4 4 4 5 5 5 5 5 6 6 6 6 6 6 6 7 7 7 7 7 7 7 7 7 8 8 8 8
2 2 2 2 2 3 3 3 3 3 3 3 3 3 3 3 3 3 4 4 4 4 5 5 5 5 5 5 5 6 6 6 6 6 6 7 7 7 7 7 7 7 7
1 1 1 1 2 2 2 2 2 2 2 2 2 2 2 2 2 2 2 3 3 4 4 4 4 4 5 5 5 5 5 5 6 6 6 6 6 6 6 7 7 7 7
0 0 0 1 1 1 1 1 2 2 1 1 1 1 1 1 1 2 2 2 2 3 3 3 3 4 4 4 4 5 5 5 5 5 5 5 6 6 6 6 6 6 7
-1 -0 -0 -0 0 0 1 1 1 1 1 1 1 1 1 1 1 1 1 1 1 2 2 3 3 3 3 3 4 4 4 4 4 4 5 5 5 5 5 5 6 6 6
-2 -1 -1 -1 -1 -0 -0 -0 0 0 0 0 0 0 0 0 0 0 0 0 0 0 1 2 2 2 3 3 3 3 3 4 4 4 4 4 4 5 5 5 5 5 5
-2 -2 -2 -2 -1 -1 -1 -1 -1 -0 -0 -0 -0 -0 -0 -0 -0 -0 -0 -0 -0 -0 0 1 1 1 2 2 2 2 2 3 3 3 3 4 4 4 4 4 5 5 5
-3 -3 -2 -2 -2 -2 -2 -1 -1 -1 -1 -1 -1 -1 -1 -1 -1 -1 -1 -1 -1 -1 -1 -0 0 0 1 1 1 1 2 2 2 2 3 3 3 3 3 4 4 4 4
-3 -3 -3 -3 -3 -2 -2 -2 -2 -2 -2 -2 -2 -2 -2 -2 -2 -1 -1 -1 -1 -1 -1 -1 -1 -0 -0 -0 0 1 1 1 1 2 2 2 2 3 3 3 3 3 3
-4 -4 -4 -4 -3 -3 -3 -3 -3 -3 -3 -3 -3 -3 -2 -2 -2 -2 -2 -2 -2 -2 -2 -2 -2 -1 -1 -1 -0 -0 0 0 1 1 1 2 2 2 2 2 3 3 3
-4 -4 -4 -4 -4 -4 -4 -4 -4 -4 -4 -4 -3 -3 -3 -3 -3 -3 -3 -3 -2 -2 -3 -3 -2 -2 -2 -1 -1 -1 -1 -0 -0 0 1 1 1 1 1 2 2 2 2
-5 -5 -5 -5 -5 -5 -5 -5 -5 -5 -5 -4 -4 -4 -4 -4 -4 -4 -3 -3 -3 -3 -3 -3 -3 -3 -3 -2 -2 -2 -2 -1 -1 -0 -0 0 0 0 1 1 1 1 1
-6 -6 -6 -6 -6 -6 -5 -6 -6 -5 -5 -5 -5 -5 -5 -4 -4 -4 -4 -4 -4 -4 -4 -4 -4 -4 -4 -3 -3 -3 -3 -2 -2 -1 -1 -1 -0 -0 -0 0 0 1 1
-6 -6 -6 -6 -6 -6 -6 -6 -6 -6 -6 -6 -6 -6 -5 -5 -5 -5 -5 -5 -5 -5 -5 -5 -4 -4 -4 -4 -4 -4 -3 -3 -3 -3 -2 -2 -1 -1 -1 -1 -1 -0 -0
-7 -7 -7 -7 -7 -7 -7 -7 -7 -7 -7 -7 -7 -6 -6 -6 -6 -6 -6 -5 -5 -5 -5 -5 -5 -5 -5 -5 -5 -4 -4 -4 -4 -3 -3 -3 -2 -2 -2 -1 -1 -1 -1
-7 -7 -7 -7 -7 -7 -7 -8 -8 -8 -8 -7 -7 -7 -7 -7 -7 -6 -6 -6 -6 -6 -6 -6 -6 -5 -5 -5 -5 -5 -5 -5 -4 -4 -4 -4 -3 -3 -2 -2 -2 -2 -2
-8 -8 -8 -8 -8 -8 -8 -8 -8 -8 -8 -8 -8 -8 -8 -7 -7 -7 -7 -7 -7 -6 -6 -6 -6 -6 -6 -6 -6 -6 -6 -6 -5 -5 -5 -4 -4 -4 -3 -3 -3 -3 -2
-8 -9 -8 -8 -9 -8 -9 -9 -9 -9 -9 -9 -9 -8 -8 -8 -8 -8 -8 -8 -7 -7 -7 -7 -6 -6 -6 -6 -6 -6 -6 -6 -6 -6 -5 -5 -5 -5 -4 -4 -4 -4 -3
Wind_Speed
3 3 2 3 3 3 2 2 2 1 2 2 2 2 2 2 1 1 1 3 3 2 2 1 1 2 2 3 3 3 3 4 4 4 4 5 4 5 4 4 3 3 3
3 2 2 2 3 3 3 2 2 1 1 1 2 2 2 1 1 1 1 2 3 3 3 2 2 2 3 3 4 3 3 4 4 4 4 4 4 5 4 4 3 3 2
4 2 2 2 2 3 3 2 2 1 1 1 1 1 1 2 2 1 2 2 2 3 3 3 3 2 2 2 3 4 4 3 4 4 5 5 5 5 4 4 3 3 3
4 3 2 2 3 2 2 2 1 1 1 1 1 1 1 1 2 2 1 2 2 2 2 3 3 3 2 2 2 2 3 3 3 3 4 5 5 5 4 4 4 3 3
4 3 2 3 3 2 2 2 1 1 1 1 1 1 1 1 1 1 1 2 2 2 2 2 3 3 3 2 3 2 2 2 3 2 3 5 5 5 5 5 4 3 3
4 3 3 3 2 1 1 2 2 1 1 2 2 2 1 1 1 1 1 1 2 2 3 3 2 2 2 3 4 3 2 2 2 2 2 3 4 5 6 6 5 5 4
5 4 3 3 3 2 2 2 2 1 1 1 1 2 1 1 1 1 1 1 1 2 2 3 3 2 1 1 2 2 2 2 2 2 2 2 3 4 5 6 6 6 6
5 4 3 3 3 2 2 2 2 1 1 1 1 2 2 2 1 1 1 1 2 1 1 2 3 3 3 1 1 2 2 2 2 2 3 3 4 5 6 5 6 8 7
5 4 4 3 3 2 2 2 3 2 1 1 1 1 2 2 1 1 1 1 2 1 2 2 2 2 3 2 1 2 2 3 3 3 3 4 5 5 4 6 6 6 6
5 5 4 4 3 3 3 3 3 3 2 2 1 2 2 2 2 2 1 1 2 2 2 2 2 2 2 2 2 2 3 3 4 4 4 5 5 5 6 5 5 6 6
4 5 5 4 4 3 3 3 3 3 3 3 2 2 2 2 3 3 3 2 2 2 2 3 2 3 2 2 2 2 2 3 4 5 6 6 6 6 6 6 6 6 6
3 4 5 4 4 4 4 4 4 4 3 3 3 2 3 3 3 3 4 4 3 3 3 3 2 3 3 2 2 4 3 3 4 5 6 7 7 7 7 7 7 7 7
3 4 5 4 4 4 4 4 4 4 4 4 4 3 3 4 3 4 4 4 4 4 3 2 2 2 2 3 3 4 3 4 5 6 6 6 7 8 8 8 8 7 7
4 5 5 5 5 5 5 4 4 4 4 4 5 5 4 4 3 4 4 4 4 4 4 4 2 2 2 3 4 4 4 5 6 6 7 7 7 7 8 8 8 8 7
4 5 6 5 5 5 4 4 4 4 4 4 4 5 5 4 4 4 4 4 5 5 5 4 3 3 3 3 4 5 6 6 7 8 8 8 8 8 8 9 9 8 8
5 5 5 5 5 5 5 4 4 4 4 4 4 5 5 4 4 4 4 5 5 6 6 4 4 4 4 5 5 6 7 8 8 8 9 9 9 9 8 8 8 8 8
5 5 5 5 5 5 5 4 4 4 5 4 4 5 6 6 5 4 4 5 5 6 7 6 5 4 6 6 6 7 8 8 8 9 9 10 9 9 9 8 8 8 8
4 5 5 5 5 5 5 4 4 4 4 5 5 5 6 5 6 5 5 6 6 6 7 8 6 6 6 6 7 7 7 7 8 9 10 10 10 10 9 9 10 9 10
4 4 4 4 4 4 4 4 4 5 5 5 5 6 6 6 6 6 6 7 6 6 7 7 7 6 6 5 6 6 7 6 8 9 9 10 11 11 11 11 11 10 11
4 4 4 4 5 5 5 5 5 5 5 5 5 6 6 7 7 7 6 7 7 7 7 7 7 6 6 5 5 5 6 5 6 6 8 9 10 11 11 11 11 11 12
4 4 4 4 5 4 4 5 5 6 6 6 6 6 7 7 8 8 7 7 7 7 7 7 7 6 6 5 5 5 6 6 6 5 5 6 7 7 8 10 11 12 13
4 4 4 4 5 4 6 7 7 6 6 6 7 7 7 8 8 10 10 10 10 9 8 8 7 8 8 7 6 6 6 6 6 4 5 6 5 6 7 8 10 12 12
5 4 4 5 5 6 8 8 8 7 6 6 7 7 6 6 7 7 8 10 11 12 12 11 10 10 9 8 7 7 7 8 8 6 5 7 6 7 7 9 11 12 12
5 5 5 5 6 6 8 9 9 7 7 7 7 7 7 7 6 7 7 8 8 9 10 10 10 10 9 9 9 9 9 8 8 6 6 7 6 7 6 7 10 12 12
5 5 5 5 6 7 9 9 8 6 6 7 7 7 7 7 8 10 8 8 8 8 9 12 12 12 12 12 11 7 7 7 8 7 6 6 6 6 6 6 7 9 10
5 6 5 5 6 7 8 9 8 5 6 6 6 6 7 8 9 10 8 7 8 8 8 8 9 10 10 11 12 10 8 8 7 6 5 5 5 4 4 4 5 6 7
Wind_Direction
23 17 9 12 7 356 359 1 359 8 19 23 24 29 25 22 11 352 34 34 5 339 335 300 256 220 196 188 172 165 171 168 163 156 155 156 156 149 141 138 134 126 129
10 3 2 1 5 354 343 336 340 338 358 9 18 16 9 11 3 354 351 28 24 356 335 331 304 254 219 203 193 187 181 178 171 169 167 166 161 159 157 150 144 141 141
3 348 351 355 355 344 335 329 344 330 330 347 7 358 3 2 356 356 349 351 8 14 9 349 331 316 271 237 216 205 200 184 181 179 178 173 170 171 172 171 169 174 178
3 351 344 347 345 342 334 317 328 302 294 296 298 320 331 341 350 346 0 3 355 343 355 356 333 323 310 285 255 224 199 190 174 182 186 186 186 183 180 178 181 189 193
359 359 345 341 334 334 328 319 315 300 285 297 295 299 321 318 330 343 9 9 358 345 328 329 323 321 316 295 279 259 231 198 187 174 190 193 194 196 197 196 195 199 205
356 352 350 338 336 329 321 320 299 302 298 303 295 294 303 306 320 345 358 5 5 358 345 333 319 318 307 295 286 271 260 233 202 188 192 206 207 209 209 210 213 215 208
352 347 349 346 336 321 310 310 298 282 318 333 294 286 271 249 296 334 357 347 356 6 4 350 337 332 322 323 303 301 305 275 251 239 231 236 232 225 222 224 222 217 211
352 347 343 337 334 313 303 298 304 266 305 323 278 268 266 227 236 279 309 321 321 341 4 355 344 342 335 304 352 349 330 316 292 266 245 239 246 235 230 228 228 220 214
348 347 338 331 324 314 294 291 288 267 244 248 282 268 253 250 296 241 245 274 300 308 325 336 334 336 332 323 329 11 352 321 305 288 267 249 247 245 242 236 232 222 213
345 345 337 335 326 310 299 294 288 276 247 236 252 270 279 291 260 260 224 243 290 304 312 311 313 317 313 312 321 346 355 331 305 290 278 267 256 248 248 246 235 224 221
340 342 338 333 328 313 297 293 284 281 252 241 241 261 257 262 255 254 257 265 274 283 292 287 293 304 305 296 294 323 333 317 305 295 287 274 266 257 250 248 242 234 232
332 337 333 328 321 316 307 294 279 272 259 249 242 241 248 244 241 249 258 266 271 277 280 273 280 291 294 292 313 337 322 305 299 296 290 279 269 266 259 251 247 239 238
319 324 324 319 315 310 306 299 281 271 256 246 243 246 250 255 254 252 254 262 271 281 269 255 258 278 292 287 301 320 302 308 309 302 294 287 275 265 263 260 253 246 244
311 315 313 312 308 302 301 298 283 270 258 247 242 242 245 251 255 246 249 253 265 269 260 254 247 261 284 284 299 297 289 296 297 296 295 292 283 271 265 261 254 246 247
315 313 313 312 307 304 303 297 281 273 263 256 248 240 240 245 243 254 249 243 246 254 260 254 246 246 282 282 289 286 283 285 282 282 284 285 283 277 268 261 253 245 246
312 309 311 312 311 312 307 294 286 281 268 262 256 250 246 244 242 242 247 250 246 248 256 266 265 277 287 283 281 280 277 279 271 273 276 276 276 274 269 261 254 250 249
308 305 306 306 305 307 305 295 292 288 275 269 265 258 254 250 245 243 240 243 245 244 251 264 268 271 274 275 280 278 276 276 271 267 269 268 268 267 261 258 258 253 253
302 302 302 301 302 303 301 295 292 289 285 279 272 264 260 254 248 247 241 239 242 245 249 258 265 266 267 271 277 277 278 275 273 270 265 262 261 258 258 258 257 252 252
303 304 302 300 303 304 303 299 294 288 284 282 278 272 269 263 257 254 248 245 244 246 249 254 261 264 267 268 274 275 276 274 274 271 264 259 257 256 257 256 253 252 250
307 306 305 304 304 304 301 299 299 293 287 286 283 278 272 267 265 265 259 251 249 248 247 250 256 259 261 263 264 268 272 273 275 274 268 263 259 257 253 251 250 249 247
307 304 303 303 301 299 299 300 297 292 288 286 283 280 277 275 273 269 263 257 249 248 248 250 254 257 257 253 254 261 266 276 276 269 277 271 264 258 251 248 246 246 246
304 303 300 300 298 297 305 301 299 290 284 282 283 283 279 273 273 271 267 263 254 250 249 251 255 252 253 254 256 257 264 270 272 262 272 277 269 263 259 250 249 248 243
300 298 298 298 294 297 305 304 301 292 285 284 283 282 278 277 278 273 272 269 264 258 254 251 252 252 254 251 253 257 258 260 265 270 272 273 266 265 264 255 253 248 241
294 294 295 296 295 298 306 307 305 291 285 284 283 281 280 279 276 280 280 275 271 265 260 255 253 255 257 257 252 254 258 267 273 264 255 264 267 267 270 262 250 243 239
292 293 294 294 295 299 308 310 306 294 288 287 286 284 283 281 280 280 277 275 278 278 274 262 260 261 262 259 255 250 250 253 262 263 250 254 263 273 270 260 250 243 239
287 291 291 291 293 297 307 307 304 292 291 292 292 289 283 285 282 282 274 274 275 282 284 275 266 261 260 255 248 242 240 245 256 262 244 246 256 263 268 254 251 254 251
Height
1540 1540 1540 1540 1539 1539 1539 1538 1539 1538 1538 1538 1538 1538 1538 1539 1539 1539 1540 1540 1541 1541 1542 1542 1543 1544 1544 1544 1545 1545 1546 1547 1547 1548 1549 1550 1551 1551 1552 1553 1554 1555 1555
1538 1538 1538 1537 1537 1537 1537 1537 1536 1536 1536 1536 1536 1536 1537 1537 1537 1537 1538 1538 1538 1539 1540 1540 1541 1541 1542 1542 1543 1544 1544 1545 1546 1546 1547 1548 1549 1550 1551 1552 1552 1553 1554
1535 1535 1535 1535 1535 1535 1534 1534 1534 1534 1534 1534 1534 1534 1534 1534 1534 1535 1535 1535 1536 1536 1537 1537 1538 1539 1539 1540 1541 1541 1542 1543 1543 1544 1545 1546 1547 1548 1549 1550 1551 1552 1553
1533 1533 1532 1532 1532 1532 1532 1531 1531 1531 1531 1531 1532 1532 1532 1532 1532 1532 1533 1533 1533 1533 1534 1534 1535 1536 1536 1537 1538 1539 1540 1540 1541 1542 1543 1544 1545 1546 1547 1548 1549 1550 1551
1531 1530 1530 1529 1529 1529 1529 1529 1529 1529 1529 1529 1529 1529 1529 1529 1530 1530 1530 1530 1530 1531 1531 1532 1532 1533 1533 1534 1535 1536 1537 1537 1538 1539 1540 1541 1542 1543 1544 1546 1547 1548 1549
1528 1528 1527 1526 1526 1526 1526 1526 1526 1526 1526 1526 1526 1526 1526 1527 1527 1526 1527 1527 1528 1528 1528 1529 1530 1530 1530 1531 1532 1533 1533 1534 1536 1537 1537 1538 1540 1541 1542 1543 1544 1545 1546
1525 1524 1524 1523 1523 1522 1523 1523 1523 1522 1522 1523 1524 1524 1524 1524 1524 1524 1524 1525 1525 1525 1526 1526 1527 1527 1527 1528 1529 1529 1530 1532 1533 1534 1535 1535 1536 1537 1538 1540 1541 1542 1543
1522 1521 1521 1520 1519 1519 1519 1519 1519 1519 1519 1520 1521 1521 1522 1523 1521 1521 1521 1521 1522 1522 1523 1523 1524 1524 1524 1525 1526 1526 1527 1528 1529 1531 1532 1532 1533 1534 1536 1537 1538 1539 1540
1518 1518 1517 1517 1516 1516 1516 1516 1516 1516 1516 1516 1517 1519 1519 1519 1518 1518 1517 1518 1519 1519 1520 1520 1521 1521 1522 1522 1523 1523 1524 1525 1526 1527 1529 1529 1530 1531 1532 1533 1534 1535 1536
1515 1514 1513 1513 1513 1512 1512 1512 1512 1512 1512 1513 1514 1515 1516 1516 1517 1515 1515 1515 1516 1516 1516 1517 1518 1518 1519 1519 1520 1520 1521 1522 1523 1524 1525 1526 1527 1527 1528 1529 1530 1532 1533
1511 1510 1510 1509 1509 1509 1509 1508 1508 1508 1509 1509 1510 1511 1512 1512 1513 1513 1512 1512 1512 1513 1513 1514 1514 1515 1515 1516 1516 1517 1518 1519 1520 1521 1522 1523 1523 1524 1525 1526 1527 1528 1529
1508 1506 1506 1505 1505 1505 1505 1504 1505 1505 1505 1505 1506 1507 1508 1508 1509 1509 1509 1508 1508 1509 1509 1510 1510 1511 1511 1512 1512 1513 1514 1515 1516 1517 1518 1519 1520 1520 1521 1522 1523 1524 1525
1504 1503 1502 1501 1501 1501 1501 1501 1501 1501 1501 1502 1502 1503 1504 1504 1505 1506 1506 1505 1505 1505 1505 1506 1506 1507 1507 1508 1508 1509 1510 1510 1512 1512 1514 1514 1515 1516 1517 1518 1519 1520 1521
1500 1499 1499 1498 1497 1497 1497 1497 1497 1497 1497 1498 1498 1499 1499 1500 1501 1501 1502 1502 1502 1502 1502 1502 1502 1503 1503 1504 1504 1504 1505 1506 1507 1508 1509 1509 1510 1511 1512 1513 1514 1515 1516
1497 1496 1495 1494 1494 1493 1493 1493 1493 1493 1493 1493 1494 1494 1495 1495 1496 1497 1497 1498 1500 1499 1498 1498 1498 1498 1499 1499 1500 1500 1501 1501 1502 1503 1504 1504 1505 1506 1507 1508 1509 1510 1511
1493 1492 1492 1491 1490 1489 1489 1488 1488 1488 1488 1488 1489 1489 1490 1490 1491 1492 1493 1493 1494 1495 1494 1493 1494 1494 1494 1495 1495 1495 1496 1496 1497 1497 1498 1499 1500 1500 1502 1502 1503 1504 1505
1490 1489 1488 1487 1486 1485 1485 1485 1484 1484 1484 1484 1484 1484 1485 1485 1486 1487 1487 1488 1489 1489 1489 1488 1489 1490 1490 1490 1490 1490 1491 1491 1492 1492 1492 1493 1494 1495 1495 1496 1497 1498 1499
1486 1485 1484 1483 1482 1482 1481 1481 1480 1480 1479 1479 1479 1480 1480 1480 1481 1482 1482 1483 1484 1484 1485 1484 1484 1484 1485 1485 1485 1485 1485 1486 1486 1486 1487 1487 1488 1489 1489 1490 1491 1491 1493
1483 1482 1481 1480 1479 1478 1478 1477 1476 1476 1475 1475 1475 1475 1475 1475 1476 1476 1477 1478 1478 1479 1479 1479 1479 1479 1479 1480 1479 1479 1480 1480 1480 1481 1481 1481 1482 1483 1483 1484 1484 1485 1486
1480 1479 1478 1476 1475 1475 1474 1473 1472 1471 1471 1470 1470 1470 1470 1470 1471 1471 1472 1472 1473 1473 1474 1473 1473 1473 1473 1474 1474 1474 1474 1474 1474 1475 1475 1475 1476 1476 1477 1478 1478 1479 1480
1477 1475 1474 1473 1472 1471 1470 1469 1468 1468 1467 1466 1465 1465 1465 1465 1465 1466 1466 1467 1467 1468 1468 1468 1468 1468 1468 1468 1468 1468 1469 1469 1469 1469 1469 1469 1470 1470 1471 1471 1472 1473 1473
1473 1472 1471 1469 1468 1467 1467 1466 1465 1463 1462 1462 1461 1460 1460 1460 1460 1460 1460 1461 1462 1462 1462 1462 1462 1462 1462 1463 1463 1464 1464 1463 1463 1463 1463 1463 1464 1464 1464 1465 1466 1466 1467
1470 1468 1467 1466 1464 1464 1463 1462 1460 1460 1459 1457 1456 1455 1455 1454 1454 1454 1454 1455 1455 1456 1456 1457 1456 1456 1457 1457 1458 1458 1458 1458 1457 1457 1458 1457 1458 1457 1458 1459 1459 1460 1461
1467 1465 1463 1462 1461 1460 1459 1458 1457 1455 1454 1453 1452 1450 1450 1449 1449 1449 1449 1449 1449 1449 1450 1450 1450 1450 1451 1452 1453 1453 1453 1452 1452 1452 1452 1451 1451 1451 1452 1452 1453 1454 1454
1463 1461 1460 1458 1457 1456 1455 1454 1452 1451 1450 1448 1447 1446 1445 1444 1444 1444 1444 1444 1443 1443 1444 1444 1444 1444 1444 1445 1446 1447 1447 1447 1446 1446 1447 1446 1445 1445 1445 1446 1446 1447 1448
1459 1458 1456 1455 1453 1452 1451 1450 1449 1447 1445 1444 1443 1441 1440 1439 1439 1439 1439 1438 1438 1438 1438 1437 1437 1437 1437 1438 1439 1440 1440 1441 1440 1440 1440 1441 1440 1440 1439 1439 1440 1441 1442